Zurück zum Katalog

SJ-11-06

AktivWissenschaftSSO
NORAD 39624·PAYLOAD·🇨🇳 China

Gestartet Mar 31, 2014 von Jiuquan Satellite Launch Center

Loading…

Nächste Überflüge (nächste 24 Stunden)

TLE

AktuellSource: Space-Track

Epoche: Sep 14, 2026, 13:22 UTC

1 39624U 14014A   26257.55737741  .00000295  00000-0  67896-4 0  9991
2 39624  97.9450 280.8957 0015228  66.8877 293.3928 14.61920734663759

Verfolge SJ-11-06 in Echtzeit mit AllMySat

Download on the App Store